Location: Gad�tanya
(48.0500°N, 20.8500°E)
Time: 11:26:48
(UTC+00:00)

Cosmos 1603 - Pass Details

Date: 05 July 2020
Orbit: 830 x 861 km, 71.0° (Epoch: 14 August)

Event Time Altitude Azimuth Distance (km) Brightness Sun altitude
Exits shadow 23:36:05 31° 205° (SSW) 1,434 4.3 -18.2°
Maximum altitude 23:38:55 89° 119° (ESE) 855 3.7 -18.1°
Drops below altitude 10° 23:44:40 10° 28° (NNE) 2,493 7.4 -17.9°
Sets 23:47:08 0° 28° (NNE) 3,437 8.4 -17.8°
